Regional Weather Roundup
Issued by NWS

Home | Current Version | Previous Version | Graphics & Text | Print | Product List | Glossary On
Versions: 1 2 3 4 5 6 7 8 9 10 11 12 13 14 15 16 17 18 19 20 21 22 23 24 25 26 27 28 29 30 31 32 33 34 35 36 37 38 39 40 41 42 43 44 45 46 47 48 49 50
000
ASUS43 KLSX 301007
RWRMO

WEATHER SUMMARY FOR MISSOURI
NATIONAL WEATHER SERVICE SPRINGFIELD MO
500 AM CDT SAT AUG 30 2014

NOTE: "FAIR" INDICATES FEW OR NO CLOUDS BELOW 12,000 FEET WITH NO
       SIGNIFICANT WEATHER AND/OR OBSTRUCTIONS TO VISIBILITY.
       CURRENT SKY AND/OR WEATHER CONDITIONS ARE NOT AVAILABLE FOR
       CHILLICOTHE AND FARMINGTON.

MOZ001>031-035>038-043-044-053-054-301100-
...NORTHERN AND WESTERN MISSOURI...

CITY           SKY/WX    TMP DP  RH WIND       PRES   REMARKS
KANSAS CTY INT CLEAR     68  66  93 SW7       29.88S
KANSAS C DTWN  CLEAR     72  67  84 SW6       29.88R
LEE`S SUMMIT   CLEAR     70  66  87 SW9       29.90R
ST JOSEPH      PTCLDY    65  63  93 N3        29.88R
CHILLICOTHE      N/A     71  67  87 VRB3      29.88S
KIRKSVILLE     PTCLDY    68  66  93 SW6       29.87S

$$
MOZ066>068-077>081-088>096-101>105-301100-
...SOUTHWEST MISSOURI...

CITY           SKY/WX    TMP DP  RH WIND       PRES   REMARKS
SPRINGFIELD    PTCLDY    71  67  87 S10       29.95S
JOPLIN         PTCLDY    73  69  87 S9        29.94R

$$
MOZ032>034-039>042-045>050-055>058-069>072-301100-
...CENTRAL MISSOURI...

CITY           SKY/WX    TMP DP  RH WIND       PRES   REMARKS
COLUMBIA       PTCLDY    70  68  93 S5        29.91F
JEFFERSON CITY MOCLDY    72  69  90 VRB6      29.91S
ROLLA          PTCLDY    68  66  93 S7        29.94S
SEDALIA        PTCLDY    74  67  78 SW12      29.91S
WHITEMAN AFB   PTCLDY    69  67  92 S9        29.89S
OSAGE BEACH    MOCLDY    70  66  88 S5        29.94R

$$
MOZ051-052-059>065-301100-
...EAST CENTRAL MISSOURI...

CITY           SKY/WX    TMP DP  RH WIND       PRES   REMARKS
ST LOUIS INTL  CLOUDY    77  67  71 SW8       29.93S
SPIRIT OF STL  MOCLDY    73  68  84 S5        29.91S
ST CHARLES     MOCLDY    73  68  84 CALM      29.91S

$$
MOZ072>076-082>087-097>100-106>115-301100-
...SOUTH CENTRAL AND SOUTHEAST MISSOURI...

CITY           SKY/WX    TMP DP  RH WIND       PRES   REMARKS
CAPE GIRARDEAU CLOUDY    73  70  90 CALM      29.98S
FARMINGTON     CLOUDY    72  68  88 S7        29.99R
POPLAR BLUFF   CLOUDY    72  69  90 CALM      29.97S
WEST PLAINS    MOCLDY    72  68  87 SW6       30.00R

$$



USA.gov is the U.S. government's official web portal to all federal, state and local government web resources and services.